[[{"header":{"parameterUnit":"m.s-1","parameterCategory":1,"la1":30.2991,"la2":30.254,"lo1":-89.0895,"lo2":-89.0444,"dy":0.0017,"dx":0.0017,"nx":28,"ny":28,"refTime":"2023-11-17T09:00:00:Z","depth":0,"parameterNumber":2,"parameterNumberName":"U-component_of_WINDS"},"data":[0,0,0,0,0,0,0,0,0,0,0,0,0,0,0,0,0,0,0,0,0,0,0,0,0,0,0,0,0,0,0,0,0,0,0,0,0,0,0,0,0,0,0,0,0,0,0,0,0,0,0,0,0,0,0,0,0,0,0.9834,0.9834,0,0.982,0.982,0.982,0.9796,0.9796,0.9795,0.9795,0.9781,0.9781,0.9781,0,0,0,0,0,0,0,0,0,0,0,0,0,0.9842,0.9842,0.9834,0.9834,0.9834,0.982,0.982,0.982,0.9796,0.9796,0.9795,0.9795,0.9781,0.9781,0.9781,0,0,0,0,0,0,0,0,0,0,0,0,0,0.9834,0.9842,0.9834,0.982,0.9819,0.982,0.982,0.982,0.9796,0.9796,0.9795,0.9794,0.9781,0.9781,0.9781,0.9795,0,0,0.9781,0.9781,0,0,0,0,0,0,0,0,0.9835,0.9834,0.9822,0.9821,0.982,0.9809,0.9817,0.9811,0.9796,0.9805,0.9795,0.9794,0.9791,0.979,0.9789,0.9794,0.9793,0.9781,0.9781,0.9781,0.9781,0,0,0,0,0,0,0,0.9835,0.9834,0.9828,0.9822,0.9821,0.9815,0.9813,0.9816,0.9802,0.9804,0.9802,0.9801,0.979,0.9789,0.9788,0.9793,0.9781,0.9781,0.9781,0.9781,0.9809,0.981,0,0,0,0,0,0,0.9838,0.9835,0.9829,0.9828,0.9826,0.9816,0.9814,0.9813,0.9802,0.9799,0.9802,0.98,0.9789,0.9788,0.9788,0.9803,0.9781,0.9781,0.9781,0.9809,0.981,0.981,0,0,0,0,0,0,0.9838,0.9837,0.9829,0.9831,0.983,0.9816,0.9816,0.9813,0.9812,0.98,0.9797,0.9803,0.9789,0.9788,0.9793,0.9803,0.9781,0.9782,0.9808,0.9809,0.981,0.9834,0,0,0,0,0,0,0.9838,0.9837,0.9842,0.9831,0.983,0.9835,0.9816,0.9813,0.9812,0.981,0.98,0.9798,0.9788,0.9793,0.9793,0.9802,0.9782,0.9807,0.9808,0.981,0.9833,0.9836,0.9839,0,0,0,0,0,0.9838,0.985,0.9842,0.9842,0.9835,0.9835,0.9834,0.9822,0.9813,0.9818,0.981,0.9799,0.9802,0.9794,0.9794,0.9803,0.9806,0.9808,0.981,0.9831,0.9835,0.9839,0,0,0,0,0,0,0.9862,0.9848,0.984,0.9848,0.9843,0.9831,0.9837,0.9827,0.9825,0.9823,0.9808,0.9806,0.9814,0.9809,0.9801,0.9816,0.9802,0.9804,0.9819,0.9823,0.9826,0.9827,0.9782,0,0,0,0,0,0.9868,0.9869,0.9857,0.9865,0.9863,0.9851,0.985,0.9841,0.9836,0.9834,0.9826,0.9822,0.9822,0.9822,0.9821,0.9832,0.983,0.9838,0.9841,0.9844,0.9846,0.9852,0.9856,0.9816,0.9816,0.9816,0,0,0.9881,0.9873,0.9875,0.9869,0.9865,0.9867,0.9849,0.9851,0.9853,0.9834,0.9839,0.9833,0.9827,0.9836,0.9839,0.9832,0.9856,0.9846,0.9848,0.9849,0.9854,0.9858,0.9861,0.9817,0.9816,0.9816,0,0,0.9904,0.9899,0.9905,0.9901,0.9894,0.9886,0.9887,0.9877,0.9873,0.9877,0.9864,0.9865,0.9865,0.9862,0.986,0.9883,0.9873,0.9884,0.99,0.9906,0.991,0.9912,0.9921,0.9924,0.9885,0.9885,0.9885,0,0.9921,0.9923,0.991,0.9913,0.9912,0.9895,0.9902,0.9898,0.9891,0.9891,0.9883,0.9883,0.9878,0.9885,0.9891,0.989,0.9892,0.9885,0.991,0.9913,0.9915,0.9923,0.9927,0.9887,0.9886,0.9886,0.9886,0,0.9944,0.9946,0.9952,0.9946,0.9945,0.995,0.9938,0.9939,0.993,0.9923,0.9928,0.9921,0.9919,0.992,0.9912,0.9927,0.9923,0.9913,0.9899,0.9921,0.9928,0.9931,0.9889,0.9888,0.9888,0.9887,0,0,0.9982,0.9969,0.9971,0.9969,0.996,0.9961,0.9966,0.9964,0.9965,0.9961,0.9965,0.9966,0.9957,0.9955,0.9946,0.9951,0.9971,0.994,0.994,0.9947,0.9988,0.9996,0.9999,0.9964,0.9964,0.9965,0.9988,0,1.0004,1.0011,1.0,1.001,1.0011,0.9996,1.0,0.9995,0.9989,0.999,0.9983,0.9984,0.9971,0.997,0.9975,0.9967,0.9979,0.9966,0.9968,0.9968,0.997,1.0003,1.0011,1.0034,0.9991,0.9992,0.9992,0,1.0031,1.0029,1.0039,1.003,1.003,1.0034,1.0032,1.0033,1.0027,1.0022,1.0021,1.001,1.0015,1.0001,1.0008,0.9999,0.9999,0.9996,0.9996,0.9996,0.9981,1.0004,1.0041,1.0044,0.9996,0.9996,0.9996,0,1.0058,1.0058,1.0064,1.0062,1.0052,1.0055,1.0051,1.0045,1.0045,1.0043,1.0042,1.0041,1.004,1.004,1.0029,1.002,1.0037,1.0023,1.0034,1.0034,1.0038,1.0038,1.0075,1.0038,1.0038,1.0038,1.0038,0,1.0085,1.0092,1.0076,1.008,1.0087,1.0074,1.0082,1.0076,1.0071,1.0074,1.0061,1.0064,1.005,1.0051,1.0043,1.005,1.005,1.0046,1.0044,1.0048,1.0048,1.0048,1.0046,1.0039,1.0038,1.0038,1.0038,0,1.0116,1.0106,1.0112,1.0102,1.01,1.0106,1.0097,1.0101,1.0094,1.0097,1.0097,1.0086,1.0088,1.0077,1.0077,1.0071,1.0082,1.0077,1.0084,1.0083,1.0094,1.0094,1.0133,1.0138,1.0097,1.0097,1.0098,0,1.0134,1.0139,1.013,1.0131,1.0127,1.0129,1.0128,1.0116,1.0116,1.0111,1.0115,1.0115,1.0115,1.0118,1.011,1.011,1.0105,1.0119,1.0105,1.0108,1.0106,1.0105,1.0106,1.0122,1.0122,1.0123,1.0123,0,1.0166,1.0161,1.0161,1.0159,1.0159,1.0157,1.0155,1.0156,1.0143,1.0144,1.0145,1.0145,1.0144,1.0145,1.0143,1.0139,1.0129,1.0127,1.013,1.0134,1.0138,1.0136,1.0092,1.0127,1.0126,1.0126,1.0126,1.0126,1.0192,1.0196,1.019,1.0191,1.0187,1.0185,1.0188,1.0181,1.0182,1.018,1.0173,1.0176,1.0171,1.0168,1.0165,1.0167,1.0161,1.0164,1.0165,1.0166,1.0169,1.0137,1.0167,1.0167,1.0167,1.0167,1.0166,0,1.0224,1.022,1.022,1.0217,1.0218,1.0208,1.0204,1.0206,1.0208,1.0204,1.0204,1.0206,1.0207,1.0199,1.0199,1.0202,1.0197,1.0202,1.0202,1.0202,1.0174,1.0172,1.0206,1.0206,1.0206,1.0206,1.0206,1.0206,1.0241,1.0247,1.0241,1.0246,1.0242,1.0244,1.0243,1.0241,1.0238,1.0241,1.0241,1.0236,1.0231,1.0231,1.0231,1.0229,1.023,1.0236,1.0233,1.0207,1.0204,1.02,1.0198,1.0237,1.0237,1.026,1.026,1.026]},{"header":{"parameterUnit":"m.s-1","parameterCategory":1,"la1":30.2991,"la2":30.254,"lo1":-89.0895,"lo2":-89.0444,"dy":0.0017,"dx":0.0017,"nx":28,"ny":28,"refTime":"2023-11-17T09:00:00:Z","depth":0,"parameterNumber":3,"parameterNumberName":"V-component_of_WINDS"},"data":[0,0,0,0,0,0,0,0,0,0,0,0,0,0,0,0,0,0,0,0,0,0,0,0,0,0,0,0,0,0,0,0,0,0,0,0,0,0,0,0,0,0,0,0,0,0,0,0,0,0,0,0,0,0,0,0,0,0,-5.247,-5.2471,0,-5.2563,-5.2564,-5.2565,-5.2551,-5.2549,-5.2548,-5.2546,-5.2634,-5.2637,-5.2641,0,0,0,0,0,0,0,0,0,0,0,0,0,-5.2275,-5.2279,-5.247,-5.2471,-5.2472,-5.2563,-5.2564,-5.2565,-5.2551,-5.2549,-5.2547,-5.2545,-5.2632,-5.2637,-5.2641,0,0,0,0,0,0,0,0,0,0,0,0,0,-5.2363,-5.228,-5.247,-5.2476,-5.2478,-5.2563,-5.2564,-5.2566,-5.2551,-5.2549,-5.2547,-5.2544,-5.2631,-5.2636,-5.2642,-5.2724,0,0,-5.2659,-5.2662,0,0,0,0,0,0,0,0,-5.2358,-5.237,-5.2474,-5.2476,-5.2478,-5.2543,-5.2528,-5.2619,-5.2552,-5.2523,-5.2546,-5.2543,-5.2605,-5.2612,-5.2635,-5.2728,-5.2732,-5.266,-5.2663,-5.2666,-5.2667,0,0,0,0,0,0,0,-5.2352,-5.2366,-5.2506,-5.2476,-5.2478,-5.2473,-5.2483,-5.2545,-5.2576,-5.2525,-5.2525,-5.2536,-5.2605,-5.2629,-5.2637,-5.2733,-5.266,-5.2665,-5.2668,-5.267,-5.2903,-5.2905,0,0,0,0,0,0,-5.2345,-5.2361,-5.2504,-5.2509,-5.2411,-5.2478,-5.2489,-5.2524,-5.2575,-5.2581,-5.2538,-5.2535,-5.2621,-5.263,-5.264,-5.2742,-5.2666,-5.2671,-5.2674,-5.29,-5.2903,-5.2906,0,0,0,0,0,0,-5.2341,-5.2358,-5.25,-5.2435,-5.2453,-5.2484,-5.2524,-5.2527,-5.2552,-5.2585,-5.259,-5.2558,-5.2619,-5.2632,-5.2705,-5.2745,-5.2674,-5.2679,-5.2897,-5.2901,-5.2905,-5.2945,0,0,0,0,0,0,-5.2335,-5.2356,-5.2388,-5.2436,-5.2456,-5.2564,-5.2526,-5.2531,-5.2562,-5.2559,-5.2604,-5.2609,-5.2618,-5.2696,-5.271,-5.2751,-5.2683,-5.2893,-5.2898,-5.2903,-5.294,-5.295,-5.2959,0,0,0,0,0,-5.2328,-5.2393,-5.239,-5.2407,-5.2498,-5.2567,-5.2578,-5.259,-5.2566,-5.2598,-5.262,-5.2608,-5.2738,-5.2704,-5.272,-5.2763,-5.2891,-5.2897,-5.2903,-5.2936,-5.2948,-5.2958,0,0,0,0,0,0,-5.2345,-5.2399,-5.2396,-5.2479,-5.2519,-5.2564,-5.2605,-5.2601,-5.2646,-5.2641,-5.2652,-5.2662,-5.2737,-5.2757,-5.2717,-5.2847,-5.2811,-5.282,-5.2831,-5.2843,-5.2852,-5.2845,-5.2688,0,0,0,0,0,-5.236,-5.2413,-5.2457,-5.2526,-5.2546,-5.2573,-5.2603,-5.2609,-5.265,-5.2665,-5.2692,-5.273,-5.278,-5.2812,-5.286,-5.2944,-5.2954,-5.2981,-5.299,-5.2998,-5.3006,-5.3055,-5.3068,-5.2926,-5.2926,-5.2926,0,0,-5.2388,-5.2424,-5.2456,-5.253,-5.2562,-5.2616,-5.2586,-5.2644,-5.2685,-5.2673,-5.2745,-5.2767,-5.281,-5.289,-5.2926,-5.2909,-5.3048,-5.3006,-5.3011,-5.3015,-5.3063,-5.3076,-5.3088,-5.2931,-5.293,-5.2929,0,0,-5.2468,-5.25,-5.2563,-5.2597,-5.2647,-5.2665,-5.268,-5.2727,-5.2743,-5.2816,-5.281,-5.2857,-5.2942,-5.2974,-5.3001,-5.31,-5.3091,-5.3114,-5.3162,-5.3209,-5.322,-5.323,-5.3267,-5.328,-5.3122,-5.3123,-5.3123,0,-5.2495,-5.258,-5.2595,-5.2656,-5.2689,-5.2686,-5.275,-5.2781,-5.2842,-5.2865,-5.2845,-5.2956,-5.2984,-5.3073,-5.3098,-5.3119,-5.3137,-5.3109,-5.3218,-5.3228,-5.3238,-5.3273,-5.3286,-5.3125,-5.3125,-5.3125,-5.3124,0,-5.2613,-5.2671,-5.2716,-5.2781,-5.2819,-5.288,-5.2905,-5.2942,-5.2946,-5.2966,-5.3042,-5.3077,-5.3133,-5.3154,-5.3156,-5.3245,-5.3233,-5.3216,-5.318,-5.3254,-5.3287,-5.33,-5.3129,-5.3128,-5.3127,-5.3127,0,0,-5.2702,-5.2779,-5.2795,-5.2827,-5.2884,-5.2929,-5.2991,-5.305,-5.3082,-5.3126,-5.3178,-5.3253,-5.324,-5.3271,-5.3277,-5.3319,-5.3398,-5.3297,-5.3298,-5.3316,-5.3499,-5.3513,-5.3528,-5.3393,-5.3395,-5.3397,-5.3496,0,-5.2789,-5.2902,-5.2921,-5.302,-5.3075,-5.3075,-5.313,-5.3171,-5.3192,-5.3241,-5.3263,-5.3318,-5.3294,-5.3314,-5.3355,-5.3379,-5.3435,-5.3372,-5.3441,-5.3444,-5.3431,-5.3545,-5.3558,-5.365,-5.3509,-5.3512,-5.3513,0,-5.2904,-5.2956,-5.3062,-5.3117,-5.3141,-5.319,-5.3247,-5.3295,-5.3341,-5.3354,-5.3392,-5.3395,-5.3459,-5.3422,-5.3512,-5.3469,-5.3498,-5.3515,-5.3519,-5.3526,-5.3483,-5.3556,-5.3679,-5.3693,-5.3533,-5.3532,-5.353,0,-5.2961,-5.3057,-5.3135,-5.3161,-5.3225,-5.3261,-5.3289,-5.3334,-5.3369,-5.3419,-5.3443,-5.3498,-5.3528,-5.357,-5.3588,-5.3559,-5.3677,-5.364,-5.3689,-5.3689,-5.3714,-5.3712,-5.3844,-5.3732,-5.3732,-5.3731,-5.3731,0,-5.3056,-5.3121,-5.3162,-5.3209,-5.3283,-5.3304,-5.3375,-5.3402,-5.3443,-5.3495,-5.3497,-5.3546,-5.3566,-5.3618,-5.3631,-5.3705,-5.3718,-5.373,-5.3733,-5.373,-5.3729,-5.3749,-5.3744,-5.3735,-5.3734,-5.3733,-5.3733,0,-5.3131,-5.3161,-5.3246,-5.3303,-5.3319,-5.3371,-5.3418,-5.3464,-5.3487,-5.3553,-5.357,-5.3605,-5.3666,-5.3689,-5.3762,-5.3772,-5.3857,-5.3854,-5.3843,-5.3843,-5.3892,-5.3888,-5.4043,-5.4065,-5.3937,-5.3938,-5.3939,0,-5.319,-5.3241,-5.3306,-5.3343,-5.3374,-5.3432,-5.3471,-5.3493,-5.3533,-5.3593,-5.3632,-5.3694,-5.3745,-5.3843,-5.3874,-5.3931,-5.393,-5.398,-5.3938,-5.3935,-5.3932,-5.393,-5.3936,-5.3988,-5.3989,-5.399,-5.3991,0,-5.3292,-5.3306,-5.3362,-5.3426,-5.3473,-5.3523,-5.3571,-5.36,-5.363,-5.3675,-5.374,-5.378,-5.3858,-5.392,-5.398,-5.4006,-5.4004,-5.4005,-5.402,-5.4017,-5.4009,-5.4016,-5.3865,-5.4001,-5.4,-5.3999,-5.3998,-5.3998,-5.3362,-5.3409,-5.3464,-5.3527,-5.3568,-5.3614,-5.3662,-5.3693,-5.3749,-5.3817,-5.3826,-5.3897,-5.3945,-5.4026,-5.4056,-5.4111,-5.4097,-5.4117,-5.4123,-5.4128,-5.4133,-5.4001,-5.4121,-5.4121,-5.4121,-5.4121,-5.412,0,-5.3465,-5.3502,-5.3561,-5.3632,-5.3683,-5.368,-5.3735,-5.3777,-5.384,-5.3887,-5.394,-5.4016,-5.4078,-5.4115,-5.4177,-5.4214,-5.4214,-5.4229,-5.4227,-5.4233,-5.414,-5.4123,-5.4228,-5.4228,-5.4228,-5.4228,-5.4228,-5.4228,-5.3525,-5.3606,-5.3627,-5.3729,-5.3764,-5.3836,-5.3868,-5.3911,-5.395,-5.4037,-5.409,-5.4115,-5.4159,-5.4225,-5.4281,-5.4291,-5.4314,-5.433,-5.4338,-5.4251,-5.4239,-5.4229,-5.4212,-5.4335,-5.4335,-5.4427,-5.4428,-5.4429]}]]